KC1UIX-13 Weather Reports


time (UTC)temp
F
wind
direction
speed
knots
gust
knots
rain 1hr
in
rain 24hr
in
rain mn
in
humidity
%
barometer
mb
20260507085041 49 335 0.9 3.5 0.01 0.30 0.01 91 1006.5
20260507084059 49 348 1.7 4.3 0.01 0.29 0.01 90 1006.3
20260507083018 50 328 1.7 3.5 0.00 0.29 0.00 90 1006.6
20260507082018 50 314 1.7 5.2 0.00 0.29 0.00 90 1006.6
20260507081018 50 306 1.7 3.5 0.00 0.29 0.00 90 1006.3
20260507080018 50 321 0.9 2.6 0.00 0.29 0.00 91 1006.2
20260507075039 50 302 1.7 4.3 0.00 0.29 0.00 90 1006.0
20260507074019 50 312 1.7 4.3 0.00 0.29 0.00 90 1005.9
20260507073019 51 318 1.7 5.2 0.00 0.29 0.00 89 1006.0
20260507072039 51 296 2.6 5.2 0.00 0.29 0.00 89 1006.0
20260507071019 51 290 3.5 7.0 0.00 0.29 0.00 90 1005.8
20260507070019 51 291 2.6 7.0 0.00 0.29 0.00 94 1005.5
20260507065020 51 291 1.7 4.3 0.00 0.29 0.00 95 1005.5
20260507064017 51 288 2.6 5.2 0.00 0.29 0.00 95 1005.4
20260507063020 52 282 1.7 4.3 0.00 0.29 0.00 94 1005.6
20260507062020 52 277 1.7 2.6 0.00 0.29 0.00 92 1005.5
20260507061020 52 277 1.7 4.3 0.00 0.29 0.00 90 1005.5
20260507060020 52 285 3.5 7.0 0.00 0.29 0.00 90 1005.3
20260507055018 53 278 3.5 7.0 0.00 0.29 0.00 91 1005.4
20260507054018 53 285 3.5 6.1 0.00 0.29 0.00 91 1005.1
20260507053018 53 290 2.6 7.0 0.00 0.29 0.00 94 1005.0
20260507052019 54 264 2.6 5.2 0.00 0.29 0.00 94 1005.2
20260507051041 54 277 3.5 6.1 0.00 0.29 0.00 93 1005.2
20260507050018 54 272 2.6 4.3 0.00 0.29 0.00 93 1005.0
20260507045018 55 272 3.5 7.0 0.00 0.29 0.00 92 1005.0
20260507044019 55 266 4.3 9.6 0.00 0.29 0.00 94 1005.1
20260507043019 55 271 3.5 7.0 0.00 0.29 0.00 98 1005.1
20260507042019 55 280 2.6 6.1 0.00 0.29 0.00 99 1004.8
20260507041019 54 291 2.6 5.2 0.00 0.29 0.00 99 1004.7
20260507040039 52 299 1.7 4.3 0.00 0.29 0.00 99 1004.7
20260507035100 50 262 0.9 4.3 0.00 0.29 0.29 99 1004.8
20260507034020 49 249 2.6 4.3 0.00 0.29 0.29 99 1004.9
20260507033020 49 241 2.6 6.1 0.00 0.29 0.29 99 1004.7
20260507032020 49 239 2.6 5.2 0.00 0.29 0.29 99 1004.3
20260507031017 49 237 1.7 5.2 0.00 0.29 0.29 99 1004.3
20260507030018 49 228 1.7 6.1 0.00 0.29 0.29 99 1004.3
20260507025018 49 219 1.7 5.2 0.00 0.29 0.29 99 1004.4
20260507024041 49 216 1.7 6.1 0.00 0.29 0.29 99 1004.5
20260507023041 49 225 1.7 5.2 0.00 0.29 0.29 99 1004.6
20260507022038 49 226 1.7 5.2 0.00 0.29 0.29 99 1004.7
20260507021018 49 223 1.7 6.1 0.00 0.29 0.29 99 1004.9
20260507020019 49 222 1.7 5.2 0.00 0.29 0.29 99 1005.0
20260507015019 50 229 1.7 5.2 0.00 0.29 0.29 99 1005.0
20260507014039 50 214 1.7 5.2 0.00 0.29 0.29 99 1005.1
20260507013019 50 211 1.7 5.2 0.00 0.29 0.29 99 1005.1
20260507012019 49 218 1.7 7.8 0.00 0.29 0.29 99 1005.2
20260507011040 49 208 1.7 5.2 0.00 0.29 0.29 99 1005.3
20260507010040 49 223 0.9 4.3 0.01 0.29 0.29 99 1005.3
20260507005020 49 233 0.9 3.5 0.02 0.29 0.29 99 1005.3
20260507004017 49 241 0.9 2.6 0.02 0.29 0.29 99 1005.3
20260507003017 49 237 0.9 2.6 0.02 0.29 0.29 99 1005.4
20260507002020 49 230 1.7 4.3 0.02 0.29 0.29 99 1005.4
20260507001020 49 234 0.9 2.6 0.01 0.28 0.28 99 1005.3
20260507000022 49 236 0.9 2.6 0.01 0.28 0.28 99 1005.4
20260506235020 49 233 1.7 3.5 0.00 0.27 0.27 99 1005.4
20260506234018 49 234 1.7 4.3 0.00 0.27 0.27 99 1005.4
20260506233017 49 224 1.7 6.1 0.01 0.27 0.27 99 1005.3
20260506232039 49 226 1.7 3.5 0.03 0.27 0.27 99 1005.5
20260506231021 49 235 1.7 3.5 0.03 0.27 0.27 99 1005.5
20260506230018 50 225 1.7 5.2 0.04 0.27 0.27 99 1005.6
20260506225019 50 235 2.6 6.1 0.05 0.27 0.27 99 1005.7
20260506224039 50 230 1.7 4.3 0.05 0.27 0.27 99 1005.7
20260506223019 50 236 1.7 5.2 0.05 0.26 0.26 99 1005.7
20260506222019 50 228 1.7 7.8 0.04 0.24 0.24 99 1005.7
20260506221019 50 223 1.7 7.8 0.04 0.24 0.24 100 1005.9
20260506220019 50 225 1.7 6.1 0.05 0.23 0.23 100 1006.0
20260506215020 50 229 1.7 4.3 0.07 0.22 0.22 100 1006.2
20260506214039 49 237 1.7 5.2 0.08 0.22 0.22 100 1006.4
20260506213019 50 230 1.7 5.2 0.09 0.21 0.21 99 1006.4
20260506212020 50 232 1.7 4.3 0.11 0.20 0.20 99 1006.5
20260506211020 50 228 1.7 3.5 0.13 0.20 0.20 99 1006.6
20260506210041 50 209 1.7 5.2 0.12 0.18 0.18 98 1006.6
20260506205018 51 211 1.7 5.2 0.09 0.15 0.15 98 1006.7
20260506204018 51 215 1.7 5.2 0.09 0.14 0.14 97 1006.7
20260506203021 52 198 1.7 5.2 0.08 0.12 0.12 97 1006.6
20260506202021 52 195 1.7 6.1 0.07 0.09 0.09 96 1006.5
20260506201019 53 231 1.7 5.2 0.05 0.07 0.07 96 1006.5
20260506200018 53 231 1.7 4.3 0.05 0.06 0.06 96 1006.5
20260506195038 53 209 1.7 5.2 0.05 0.06 0.06 96 1006.8
20260506194019 53 221 1.7 7.8 0.04 0.05 0.05 96 1007.2
20260506193019 52 238 1.7 7.0 0.04 0.04 0.04 95 1007.2
20260506192019 51 238 3.5 7.8 0.03 0.03 0.03 95 1007.4
20260506191019 51 249 3.5 6.1 0.02 0.02 0.02 95 1007.2
20260506190020 51 243 2.6 5.2 0.02 0.02 0.02 94 1006.9
20260506185020 51 246 3.5 7.8 0.01 0.01 0.01 93 1007.0
20260506184020 52 232 2.6 6.1 0.01 0.01 0.01 92 1006.9
20260506183020 52 231 3.5 7.0 0.00 0.00 0.00 91 1006.9
20260506182020 52 231 2.6 5.2 0.00 0.00 0.00 91 1007.0
20260506181020 52 239 1.7 6.1 0.00 0.00 0.00 90 1007.1
20260506180017 52 240 2.6 5.2 0.00 0.00 0.00 90 1007.2
20260506175021 52 228 1.7 5.2 0.00 0.00 0.00 90 1007.3
20260506174041 52 234 2.6 5.2 0.00 0.00 0.00 90 1007.4
20260506173021 52 239 2.6 5.2 0.00 0.00 0.00 90 1007.5
20260506172018 52 247 2.6 5.2 0.00 0.00 0.00 90 1007.6
20260506171018 52 239 1.7 6.1 0.00 0.00 0.00 90 1007.7
20260506170018 53 234 1.7 3.5 0.00 0.00 0.00 89 1007.9
20260506165059 53 258 0.9 2.6 0.00 0.00 0.00 89 1008.0
20260506164039 52 230 1.7 4.3 0.00 0.00 0.00 89 1008.2
20260506163039 52 211 0.9 4.3 0.00 0.00 0.00 90 1008.4
20260506162019 52 234 1.7 3.5 0.00 0.00 0.00 90 1008.6
20260506161019 52 238 1.7 5.2 0.00 0.00 0.00 89 1008.8
20260506160019 53 229 1.7 6.1 0.00 0.00 0.00 88 1009.0
20260506155019 53 236 1.7 7.0 0.00 0.00 0.00 89 1009.1
20260506154020 53 234 1.7 6.1 0.00 0.00 0.00 89 1009.1
20260506153037 53 215 1.7 7.0 0.00 0.00 0.00 90 1009.0
20260506152017 52 217 2.6 5.2 0.00 0.00 0.00 90 1009.3
20260506151020 53 213 1.7 5.2 0.00 0.00 0.00 90 1009.1
20260506150020 53 210 2.6 7.8 0.00 0.00 0.00 90 1009.0
20260506145020 53 215 2.6 7.8 0.00 0.00 0.00 89 1009.0
20260506144021 54 221 1.7 5.2 0.00 0.00 0.00 88 1008.9
20260506143018 54 230 1.7 6.1 0.00 0.00 0.00 88 1008.9
20260506142021 53 233 1.7 5.2 0.00 0.00 0.00 90 1008.8
20260506141018 52 230 1.7 6.1 0.00 0.00 0.00 92 1009.0
20260506140019 52 211 2.6 6.1 0.00 0.00 0.00 92 1009.1
20260506135018 52 234 1.7 5.2 0.00 0.00 0.00 92 1009.1
20260506134019 52 216 1.7 6.1 0.00 0.00 0.00 92 1009.1
20260506133059 52 233 0.9 4.3 0.00 0.00 0.00 93 1009.1
20260506132019 52 212 2.6 5.2 0.00 0.00 0.00 92 1009.1
20260506131019 52 245 1.7 5.2 0.00 0.00 0.00 92 1009.1
20260506130019 52 243 1.7 6.1 0.00 0.00 0.00 92 1009.0
20260506125039 52 221 1.7 4.3 0.00 0.00 0.00 92 1009.1
20260506124020 52 238 0.9 3.5 0.00 0.00 0.00 92 1009.2
20260506123020 51 243 0.9 3.5 0.00 0.00 0.00 93 1009.2
20260506122020 51 239 0.9 2.6 0.00 0.00 0.00 94 1009.4
20260506121020 50 229 0.9 4.3 0.00 0.00 0.00 94 1009.5
20260506120020 50 234 0.9 4.3 0.00 0.00 0.00 95 1009.5
20260506115020 50 237 1.7 4.3 0.00 0.00 0.00 95 1009.6
20260506114018 50 249 1.7 4.3 0.00 0.00 0.00 95 1009.5
20260506113017 50 240 1.7 7.0 0.00 0.00 0.00 96 1009.7
20260506112021 50 249 1.7 5.2 0.00 0.00 0.00 96 1009.5
20260506111018 50 244 1.7 4.3 0.00 0.00 0.00 96 1009.6
20260506110018 50 240 1.7 3.5 0.00 0.00 0.00 96 1009.5
20260506105018 50 243 1.7 3.5 0.00 0.00 0.00 96 1009.7
20260506104019 50 239 1.7 3.5 0.00 0.00 0.00 96 1009.6
20260506103019 50 242 1.7 4.3 0.00 0.00 0.00 96 1009.7
20260506102039 50 229 1.7 3.5 0.00 0.00 0.00 96 1009.5
20260506101019 49 221 1.7 4.3 0.00 0.00 0.00 96 1009.4
20260506100019 49 239 0.9 4.3 0.00 0.00 0.00 96 1009.5
20260506095019 49 238 1.7 3.5 0.00 0.00 0.00 96 1009.5
20260506094039 49 241 0.9 4.3 0.00 0.00 0.00 96 1009.4
20260506093020 49 236 1.7 4.3 0.00 0.00 0.00 96 1009.3
20260506092020 49 231 1.7 4.3 0.00 0.00 0.00 95 1009.2
20260506091017 50 215 1.7 6.1 0.00 0.00 0.00 95 1009.2
20260506090017 50 237 1.7 4.3 0.00 0.00 0.00 95 1009.2